Weather History for Hutchinson, MN

Change the Weather History Date:

Tuesday, August 6, 2013

  Actual Average Record
Temperature  
Mean Temperature 68 °F -  
Max Temperature 83 °F 82 °F 93 °F (1963)
Min Temperature 54 °F 58 °F 45 °F (1977)
Cooling Degree Days 4    
Growing Degree Days 18 (Base 50)    
Moisture  
Dew Point 62 °F    
Average Humidity 85    
Maximum Humidity 100    
Minimum Humidity 58    
Precipitation  
Precipitation 0.07 in - - ()
Sea Level Pressure  
Sea Level Pressure 29.81 in    
Wind  
Wind Speed 3 mph (SW)    
Max Wind Speed 24 mph    
Max Gust Speed 33 mph    
Visibility 8 miles    
Events Fog , Rain    
Averages and records for this station are not official NWS values.
T = Trace of Precipitation, MM = Missing Value Source: NWS Daily Summary

Daily Weather History Graph

Daily Weather History Graph

Search for Another Location

Airport:

Trip Planner

Search our weather history database for the weather conditions in past years. The results will help you decide how hot, cold, wet, or windy it might be!

Date:

Astronomy

Aug. 06, 2013 Rise Set
Actual Time 6:09 AM CDT 8:36 PM CDT
Civil Twilight 5:36 AM CDT 9:09 PM CDT
Nautical Twilight 4:55 AM CDT 9:50 PM CDT
Astronomical Twilight 4:08 AM CDT 10:36 PM CDT
Moon 6:03 AM CDT (8/6) 8:07 PM CDT (8/6)
Length of Visible Light 15h 33m
Length of Day
14h 27m
Waning Crescent, 0% of the Moon is Illuminated
Aug 6
Waning Crescent
Aug 6
New
Aug 14
First Quarter
Aug 20
Full
Aug 28
Last Quarter

Hourly Weather History & Observations

Time (CDT) Temp. Heat Index Dew Point Humidity Pressure Visibility Wind Dir Wind Speed Gust Speed Precip Events Conditions
12:13 AM 59.4 °F - 59.0 °F 99% 29.88 in 7.0 mi Calm Calm - N/A   Clear
12:34 AM 59.2 °F - 58.8 °F 99% 29.87 in 7.0 mi Calm Calm - N/A   Clear
12:54 AM 58.1 °F - 58.1 °F 100% 29.87 in 4.0 mi Calm Calm - N/A   Clear
1:14 AM 59.4 °F - 59.2 °F 99% 29.86 in 7.0 mi Calm Calm - N/A   Clear
1:33 AM 57.2 °F - 56.8 °F 99% 29.86 in 7.0 mi Calm Calm - N/A   Clear
1:53 AM 56.7 °F - 56.5 °F 99% 29.87 in 5.0 mi Calm Calm - N/A   Clear
2:14 AM 56.8 °F - 56.7 °F 99% 29.87 in 3.0 mi Calm Calm - N/A   Clear
2:18 AM 56.3 °F - 56.1 °F 99% 29.87 in 4.0 mi Calm Calm - N/A   Clear
2:45 AM 55.4 °F - 55.4 °F 100% 29.87 in 0.8 mi Calm Calm - N/A   Unknown
3:05 AM 55.4 °F - 55.4 °F 100% 29.86 in 0.5 mi Calm Calm - N/A   Unknown
3:25 AM 55.4 °F - 55.4 °F 100% 29.86 in 0.8 mi Calm Calm - N/A   Unknown
3:45 AM 55.4 °F - 55.4 °F 100% 29.86 in 0.8 mi Calm Calm - N/A   Unknown
4:11 AM 55.4 °F - 55.6 °F 100% 29.84 in 7.0 mi Calm Calm - N/A   Clear
4:13 AM 55.6 °F - 55.8 °F 100% 29.84 in 7.0 mi Calm Calm - N/A   Clear
4:34 AM 55.2 °F - 55.2 °F 100% 29.84 in 2.0 mi Calm Calm - N/A   Clear
4:53 AM 54.0 °F - 54.1 °F 100% 29.82 in 0.8 mi Calm Calm - N/A   Mostly Cloudy
5:14 AM 54.0 °F - 54.1 °F 100% 29.83 in 0.5 mi Calm Calm - N/A Fog Fog
5:33 AM 55.0 °F - 55.2 °F 100% 29.84 in 0.5 mi Calm Calm - N/A Fog Fog
5:54 AM 54.9 °F - 55.2 °F 100% 29.85 in 2.5 mi Calm Calm - N/A   Scattered Clouds
6:13 AM 54.7 °F - 54.9 °F 100% 29.84 in 1.0 mi Calm Calm - N/A   Mist
6:33 AM 55.4 °F - 55.6 °F 100% 29.85 in 7.0 mi Calm Calm - N/A   Clear
6:54 AM 56.5 °F - 56.7 °F 100% 29.84 in 7.0 mi ENE 4.6 mph - N/A   Clear
7:14 AM 58.1 °F - 58.3 °F 100% 29.83 in 7.0 mi ENE 3.5 mph - N/A   Clear
7:34 AM 59.2 °F - 59.2 °F 100% 29.84 in 5.0 mi SE 3.5 mph - N/A   Clear
7:54 AM 59.7 °F - 59.7 °F 100% 29.84 in 7.0 mi Calm Calm - N/A   Scattered Clouds
8:13 AM 60.8 °F - 60.6 °F 99% 29.85 in 7.0 mi Calm Calm - N/A   Clear
8:33 AM 61.9 °F - 61.5 °F 99% 29.84 in 7.0 mi Calm Calm - N/A   Clear
8:54 AM 62.6 °F - 61.7 °F 97% 29.84 in 10.0 mi Calm Calm - N/A   Scattered Clouds
9:13 AM 64.2 °F - 62.6 °F 94% 29.82 in 10.0 mi ESE 4.6 mph - N/A   Scattered Clouds
9:34 AM 64.8 °F - 62.8 °F 93% 29.82 in 10.0 mi SE 3.5 mph - N/A   Scattered Clouds
9:54 AM 65.7 °F - 63.1 °F 92% 29.82 in 10.0 mi SE 5.8 mph - N/A   Mostly Cloudy
10:13 AM 66.4 °F - 63.5 °F 90% 29.81 in 10.0 mi SE 6.9 mph - N/A   Mostly Cloudy
10:32 AM 68.7 °F - 64.9 °F 88% 29.81 in 10.0 mi SE 8.1 mph - N/A   Scattered Clouds
10:54 AM 70.0 °F - 65.5 °F 86% 29.81 in 10.0 mi SE 5.8 mph - N/A   Clear
11:01 AM 70.2 °F - 65.7 °F 86% 29.81 in 10.0 mi SSE 6.9 mph - N/A   Clear
11:34 AM 72.7 °F - 66.6 °F 81% 29.80 in 10.0 mi SSE 4.6 mph - N/A   Scattered Clouds
11:54 AM 74.3 °F - 66.6 °F 77% 29.79 in 10.0 mi South 9.2 mph - N/A   Clear
12:13 PM 75.7 °F - 67.5 °F 75% 29.79 in 10.0 mi South 9.2 mph - N/A   Clear
12:34 PM 76.6 °F - 66.0 °F 70% 29.79 in 10.0 mi South 9.2 mph 16.1 mph N/A   Clear
12:54 PM 77.5 °F - 67.1 °F 70% 29.79 in 10.0 mi SSW 6.9 mph 16.1 mph N/A   Clear
1:13 PM 78.4 °F - 67.6 °F 69% 29.78 in 10.0 mi SSW 8.1 mph - N/A   Clear
1:34 PM 79.0 °F - 67.5 °F 68% 29.77 in 10.0 mi SSW 9.2 mph - N/A   Clear
1:54 PM 79.9 °F - 67.8 °F 66% 29.78 in 10.0 mi SW 9.2 mph - N/A   Clear
2:13 PM 80.8 °F 83.2 °F 67.3 °F 63% 29.78 in 10.0 mi SW 9.2 mph - N/A   Scattered Clouds
2:34 PM 81.5 °F 84.2 °F 68.0 °F 63% 29.77 in 10.0 mi SW 6.9 mph - N/A   Clear
2:52 PM 81.9 °F 84.6 °F 67.5 °F 62% 29.76 in 10.0 mi SW 8.1 mph - N/A   Clear
3:14 PM 81.9 °F 84.4 °F 67.3 °F 61% 29.77 in 10.0 mi SW 10.4 mph 16.1 mph N/A   Clear
3:33 PM 82.4 °F 84.6 °F 66.2 °F 58% 29.77 in 10.0 mi WSW 12.7 mph 18.4 mph N/A   Clear
3:53 PM 82.4 °F 85.0 °F 67.3 °F 60% 29.76 in 10.0 mi WSW 11.5 mph 18.4 mph N/A   Clear
4:13 PM 82.9 °F 85.6 °F 67.5 °F 59% 29.76 in 10.0 mi WSW 12.7 mph 19.6 mph N/A   Clear
4:34 PM 82.6 °F 85.1 °F 66.9 °F 59% 29.76 in 10.0 mi WSW 11.5 mph 18.4 mph N/A   Clear
4:53 PM 83.1 °F 85.9 °F 67.6 °F 59% 29.75 in 10.0 mi WSW 8.1 mph - N/A   Clear
5:14 PM 82.9 °F 85.6 °F 67.5 °F 59% 29.74 in 10.0 mi WSW 10.4 mph - N/A   Clear
5:33 PM 83.8 °F 88.3 °F 70.3 °F 64% 29.73 in 10.0 mi WSW 5.8 mph - N/A   Clear
5:54 PM 82.8 °F 86.2 °F 69.1 °F 63% 29.74 in 10.0 mi SW 6.9 mph - N/A   Clear
6:13 PM 82.9 °F 86.0 °F 68.4 °F 61% 29.72 in 10.0 mi SW 6.9 mph - N/A   Scattered Clouds
6:34 PM 82.4 °F 85.4 °F 68.0 °F 62% 29.72 in 10.0 mi WSW 8.1 mph - N/A   Scattered Clouds
6:54 PM 81.7 °F 84.7 °F 68.4 °F 64% 29.74 in 10.0 mi West 6.9 mph - N/A   Scattered Clouds
7:13 PM 75.2 °F - 64.6 °F 69% 29.73 in 10.0 mi NNW 6.9 mph - N/A   Overcast
7:34 PM 74.1 °F - 64.6 °F 72% 29.73 in 10.0 mi Calm Calm - N/A   Mostly Cloudy
7:54 PM 73.4 °F - 65.1 °F 75% 29.75 in 10.0 mi NW 3.5 mph - N/A   Mostly Cloudy
8:13 PM 71.8 °F - 63.7 °F 76% 29.79 in 10.0 mi NNW 24.2 mph 31.1 mph N/A   Mostly Cloudy
8:34 PM 68.0 °F - 61.3 °F 79% 29.80 in 5.0 mi NNW 20.7 mph 33.4 mph 0.05 in Rain Heavy Rain
8:54 PM 64.4 °F - 60.8 °F 88% 29.78 in 10.0 mi Calm Calm - 0.06 in   Scattered Clouds
9:13 PM 63.5 °F - 61.5 °F 93% 29.77 in 10.0 mi Calm Calm - N/A   Clear
9:34 PM 62.2 °F - 61.2 °F 96% 29.78 in 10.0 mi West 3.5 mph - N/A   Clear
9:54 PM 62.1 °F - 61.2 °F 97% 29.78 in 10.0 mi WSW 5.8 mph - N/A   Clear
10:13 PM 61.9 °F - 61.0 °F 97% 29.78 in 10.0 mi WSW 4.6 mph - N/A   Clear
10:34 PM 61.5 °F - 60.4 °F 96% 29.79 in 10.0 mi West 6.9 mph - N/A   Clear
10:54 PM 62.1 °F - 60.8 °F 96% 29.80 in 10.0 mi West 6.9 mph - 0.01 in   Clear
11:14 PM 62.6 °F - 60.4 °F 93% 29.81 in 10.0 mi West 6.9 mph - N/A   Clear
11:33 PM 62.6 °F - 60.4 °F 93% 29.82 in 10.0 mi West 6.9 mph - N/A   Clear
11:54 PM 62.1 °F - 60.8 °F 96% 29.82 in 10.0 mi West 5.8 mph - N/A   Clear